Year,Month,Day,Hour,Minute,Value (Times are PST for temperature in C)
2009,09,11,00,00,12.40
2009,09,11,00,01,12.40
2009,09,11,00,02,12.40
2009,09,11,00,03,12.40
2009,09,11,00,04,12.30
2009,09,11,00,05,12.30
2009,09,11,00,06,12.30
2009,09,11,00,07,12.30
2009,09,11,00,08,12.30
2009,09,11,00,09,12.30
2009,09,11,00,10,12.30
2009,09,11,00,11,12.30
2009,09,11,00,12,12.30
2009,09,11,00,13,12.30
2009,09,11,00,14,12.30
2009,09,11,00,15,12.20
2009,09,11,00,16,12.20
2009,09,11,00,17,12.20
2009,09,11,00,18,12.20
2009,09,11,00,19,12.20
2009,09,11,00,20,12.20
2009,09,11,00,21,12.20
2009,09,11,00,22,12.20
2009,09,11,00,23,12.10
2009,09,11,00,24,12.10
2009,09,11,00,25,12.10
2009,09,11,00,26,12.10
2009,09,11,00,27,12.10
2009,09,11,00,28,12.10
2009,09,11,00,29,12.10
2009,09,11,00,30,12.10
2009,09,11,00,31,12.10
2009,09,11,00,32,12.10
2009,09,11,00,33,12.10
2009,09,11,00,34,12.10
2009,09,11,00,35,12.10
2009,09,11,00,36,12.10
2009,09,11,00,37,12.10
2009,09,11,00,38,12.10
2009,09,11,00,39,12.10
2009,09,11,00,40,12.10
2009,09,11,00,41,12.10
2009,09,11,00,42,12.10
2009,09,11,00,43,12.10
2009,09,11,00,44,12.10
2009,09,11,00,45,12.10
2009,09,11,00,46,12.10
2009,09,11,00,47,12.10
2009,09,11,00,48,12.10
2009,09,11,00,49,12.10
2009,09,11,00,50,12.10
2009,09,11,00,51,12.00
2009,09,11,00,52,12.00
2009,09,11,00,53,12.00
2009,09,11,00,54,12.00
2009,09,11,00,55,11.90
2009,09,11,00,56,11.90
2009,09,11,00,57,11.90
2009,09,11,00,58,11.90
2009,09,11,00,59,11.90
2009,09,11,01,00,11.90
2009,09,11,01,01,11.90
2009,09,11,01,02,11.90
2009,09,11,01,03,11.90
2009,09,11,01,04,11.90
2009,09,11,01,05,11.90
2009,09,11,01,06,11.90
2009,09,11,01,07,11.80
2009,09,11,01,08,11.80
2009,09,11,01,09,11.80
2009,09,11,01,10,11.80
2009,09,11,01,11,11.80
2009,09,11,01,12,11.80
2009,09,11,01,13,11.80
2009,09,11,01,14,11.80
2009,09,11,01,15,11.80
2009,09,11,01,16,11.80
2009,09,11,01,17,11.80
2009,09,11,01,18,11.80
2009,09,11,01,19,11.80
2009,09,11,01,20,11.80
2009,09,11,01,21,11.80
2009,09,11,01,22,11.80
2009,09,11,01,23,11.80
2009,09,11,01,24,11.80
2009,09,11,01,25,11.80
2009,09,11,01,26,11.80
2009,09,11,01,27,11.80
2009,09,11,01,28,11.80
2009,09,11,01,29,11.80
2009,09,11,01,30,11.80
2009,09,11,01,31,11.80
2009,09,11,01,32,11.90
2009,09,11,01,33,11.90
2009,09,11,01,34,11.80
2009,09,11,01,35,11.80
2009,09,11,01,36,11.80
2009,09,11,01,37,11.80
2009,09,11,01,38,11.80
2009,09,11,01,39,11.80
2009,09,11,01,40,11.80
2009,09,11,01,41,11.80
2009,09,11,01,42,11.80
2009,09,11,01,43,11.80
2009,09,11,01,44,11.80
2009,09,11,01,45,11.70
2009,09,11,01,46,11.70
2009,09,11,01,47,11.70
2009,09,11,01,48,11.70
2009,09,11,01,49,11.70
2009,09,11,01,50,11.70
2009,09,11,01,51,11.60
2009,09,11,01,52,11.60
2009,09,11,01,53,11.60
2009,09,11,01,54,11.60
2009,09,11,01,55,11.60
2009,09,11,01,56,11.60
2009,09,11,01,57,11.70
2009,09,11,01,58,11.70
2009,09,11,01,59,11.70
2009,09,11,02,00,11.70
2009,09,11,02,01,11.60
2009,09,11,02,02,11.60
2009,09,11,02,03,11.60
2009,09,11,02,04,11.60
2009,09,11,02,05,11.60
2009,09,11,02,06,11.60
2009,09,11,02,07,11.60
2009,09,11,02,08,11.50
2009,09,11,02,09,11.50
2009,09,11,02,10,11.50
2009,09,11,02,11,11.50
2009,09,11,02,12,11.50
2009,09,11,02,13,11.50
2009,09,11,02,14,11.50
2009,09,11,02,15,11.50
2009,09,11,02,16,11.50
2009,09,11,02,17,11.50
2009,09,11,02,18,11.50
2009,09,11,02,19,11.50
2009,09,11,02,20,11.50
2009,09,11,02,21,11.50
2009,09,11,02,22,11.50
2009,09,11,02,23,11.50
2009,09,11,02,24,11.50
2009,09,11,02,25,11.40
2009,09,11,02,26,11.40
2009,09,11,02,27,11.40
2009,09,11,02,28,11.40
2009,09,11,02,29,11.40
2009,09,11,02,30,11.40
2009,09,11,02,31,11.40
2009,09,11,02,32,11.40
2009,09,11,02,33,11.40
2009,09,11,02,34,11.40
2009,09,11,02,35,11.40
2009,09,11,02,36,11.40
2009,09,11,02,37,11.40
2009,09,11,02,38,11.40
2009,09,11,02,39,11.40
2009,09,11,02,40,11.40
2009,09,11,02,41,11.40
2009,09,11,02,42,11.40
2009,09,11,02,43,11.40
2009,09,11,02,44,11.40
2009,09,11,02,45,11.40
2009,09,11,02,46,11.30
2009,09,11,02,47,11.30
2009,09,11,02,48,11.30
2009,09,11,02,49,11.30
2009,09,11,02,50,11.30
2009,09,11,02,51,11.30
2009,09,11,02,52,11.30
2009,09,11,02,53,11.30
2009,09,11,02,54,11.30
2009,09,11,02,55,11.30
2009,09,11,02,56,11.30
2009,09,11,02,57,11.30
2009,09,11,02,58,11.20
2009,09,11,02,59,11.20
2009,09,11,03,00,11.20
2009,09,11,03,01,11.20
2009,09,11,03,02,11.20
2009,09,11,03,03,11.20
2009,09,11,03,04,11.20
2009,09,11,03,05,11.20
2009,09,11,03,06,11.20
2009,09,11,03,07,11.20
2009,09,11,03,08,11.20
2009,09,11,03,09,11.20
2009,09,11,03,10,11.20
2009,09,11,03,11,11.20
2009,09,11,03,12,11.20
2009,09,11,03,13,11.20
2009,09,11,03,14,11.20
2009,09,11,03,15,11.20
2009,09,11,03,16,11.20
2009,09,11,03,17,11.20
2009,09,11,03,18,11.20
2009,09,11,03,19,11.20
2009,09,11,03,20,11.20
2009,09,11,03,21,11.20
2009,09,11,03,22,11.20
2009,09,11,03,23,11.20
2009,09,11,03,24,11.20
2009,09,11,03,25,11.20
2009,09,11,03,26,11.20
2009,09,11,03,27,11.20
2009,09,11,03,28,11.20
2009,09,11,03,29,11.20
2009,09,11,03,30,11.20
2009,09,11,03,31,11.20
2009,09,11,03,32,11.20
2009,09,11,03,33,11.20
2009,09,11,03,34,11.20
2009,09,11,03,35,11.20
2009,09,11,03,36,11.20
2009,09,11,03,37,11.20
2009,09,11,03,38,11.20
2009,09,11,03,39,11.20
2009,09,11,03,40,11.10
2009,09,11,03,41,11.10
2009,09,11,03,42,11.10
2009,09,11,03,43,11.10
2009,09,11,03,44,11.10
2009,09,11,03,45,11.10
2009,09,11,03,46,11.10
2009,09,11,03,47,11.10
2009,09,11,03,48,11.10
2009,09,11,03,49,11.10
2009,09,11,03,50,11.10
2009,09,11,03,51,11.10
2009,09,11,03,52,11.10
2009,09,11,03,53,11.10
2009,09,11,03,54,11.10
2009,09,11,03,55,11.10
2009,09,11,03,56,11.10
2009,09,11,03,57,11.10
2009,09,11,03,58,11.10
2009,09,11,03,59,11.10
2009,09,11,04,00,11.10
2009,09,11,04,01,11.10
2009,09,11,04,02,11.10
2009,09,11,04,03,11.10
2009,09,11,04,04,11.10
2009,09,11,04,05,11.10
2009,09,11,04,06,11.00
2009,09,11,04,07,11.00
2009,09,11,04,08,11.00
2009,09,11,04,09,10.90
2009,09,11,04,10,10.90
2009,09,11,04,11,10.90
2009,09,11,04,12,10.90
2009,09,11,04,13,10.90
2009,09,11,04,14,10.90
2009,09,11,04,15,10.90
2009,09,11,04,16,10.90
2009,09,11,04,17,10.90
2009,09,11,04,18,10.90
2009,09,11,04,19,10.90
2009,09,11,04,20,10.90
2009,09,11,04,21,10.90
2009,09,11,04,22,10.90
2009,09,11,04,23,10.90
2009,09,11,04,24,10.90
2009,09,11,04,25,10.90
2009,09,11,04,26,10.90
2009,09,11,04,27,10.90
2009,09,11,04,28,10.90
2009,09,11,04,29,10.90
2009,09,11,04,30,10.80
2009,09,11,04,31,10.80
2009,09,11,04,32,10.80
2009,09,11,04,33,10.80
2009,09,11,04,34,10.80
2009,09,11,04,35,10.80
2009,09,11,04,36,10.80
2009,09,11,04,37,10.80
2009,09,11,04,38,10.80
2009,09,11,04,39,10.80
2009,09,11,04,40,10.80
2009,09,11,04,41,10.80
2009,09,11,04,42,10.80
2009,09,11,04,43,10.80
2009,09,11,04,44,10.80
2009,09,11,04,45,10.80
2009,09,11,04,46,10.80
2009,09,11,04,47,10.80
2009,09,11,04,48,10.80
2009,09,11,04,49,10.80
2009,09,11,04,50,10.80
2009,09,11,04,51,10.80
2009,09,11,04,52,10.80
2009,09,11,04,53,10.80
2009,09,11,04,54,10.80
2009,09,11,04,55,10.80
2009,09,11,04,56,10.80
2009,09,11,04,57,10.80
2009,09,11,04,58,10.80
2009,09,11,04,59,10.80
2009,09,11,05,00,10.70
2009,09,11,05,01,10.70
2009,09,11,05,02,10.70
2009,09,11,05,03,10.80
2009,09,11,05,04,10.80
2009,09,11,05,05,10.80
2009,09,11,05,06,10.80
2009,09,11,05,07,10.80
2009,09,11,05,08,10.90
2009,09,11,05,09,10.90
2009,09,11,05,10,10.90
2009,09,11,05,11,10.80
2009,09,11,05,12,10.80
2009,09,11,05,13,10.80
2009,09,11,05,14,10.80
2009,09,11,05,15,10.80
2009,09,11,05,16,10.80
2009,09,11,05,17,10.70
2009,09,11,05,18,10.70
2009,09,11,05,19,10.70
2009,09,11,05,20,10.70
2009,09,11,05,21,10.80
2009,09,11,05,22,10.80
2009,09,11,05,23,10.80
2009,09,11,05,24,10.70
2009,09,11,05,25,10.70
2009,09,11,05,26,10.70
2009,09,11,05,27,10.70
2009,09,11,05,28,10.70
2009,09,11,05,29,10.70
2009,09,11,05,30,10.70
2009,09,11,05,31,10.70
2009,09,11,05,32,10.70
2009,09,11,05,33,10.70
2009,09,11,05,34,10.60
2009,09,11,05,35,10.60
2009,09,11,05,36,10.60
2009,09,11,05,37,10.60
2009,09,11,05,38,10.60
2009,09,11,05,39,10.60
2009,09,11,05,40,10.60
2009,09,11,05,41,10.60
2009,09,11,05,42,10.60
2009,09,11,05,43,10.60
2009,09,11,05,44,10.60
2009,09,11,05,45,10.60
2009,09,11,05,46,10.60
2009,09,11,05,47,10.60
2009,09,11,05,48,10.60
2009,09,11,05,49,10.60
2009,09,11,05,50,10.60
2009,09,11,05,51,10.60
2009,09,11,05,52,10.60
2009,09,11,05,53,10.60
2009,09,11,05,54,10.60
2009,09,11,05,55,10.50
2009,09,11,05,56,10.50
2009,09,11,05,57,10.50
2009,09,11,05,58,10.40
2009,09,11,05,59,10.40
2009,09,11,06,00,10.40
2009,09,11,06,01,10.40
2009,09,11,06,02,10.40
2009,09,11,06,03,10.50
2009,09,11,06,04,10.50
2009,09,11,06,05,10.60
2009,09,11,06,06,10.60
2009,09,11,06,07,10.60
2009,09,11,06,08,10.60
2009,09,11,06,09,10.60
2009,09,11,06,10,10.60
2009,09,11,06,11,10.60
2009,09,11,06,12,10.60
2009,09,11,06,13,10.60
2009,09,11,06,14,10.60
2009,09,11,06,15,10.60
2009,09,11,06,16,10.50
2009,09,11,06,17,10.50
2009,09,11,06,18,10.40
2009,09,11,06,19,10.40
2009,09,11,06,20,10.40
2009,09,11,06,21,10.40
2009,09,11,06,22,10.40
2009,09,11,06,23,10.40
2009,09,11,06,24,10.40
2009,09,11,06,25,10.40
2009,09,11,06,26,10.40
2009,09,11,06,27,10.50
2009,09,11,06,28,10.50
2009,09,11,06,29,10.50
2009,09,11,06,30,10.50
2009,09,11,06,31,10.60
2009,09,11,06,32,10.60
2009,09,11,06,33,10.60
2009,09,11,06,34,10.60
2009,09,11,06,35,10.50
2009,09,11,06,36,10.50
2009,09,11,06,37,10.50
2009,09,11,06,38,10.50
2009,09,11,06,39,10.50
2009,09,11,06,40,10.50
2009,09,11,06,41,10.50
2009,09,11,06,42,10.50
2009,09,11,06,43,10.40
2009,09,11,06,44,10.40
2009,09,11,06,45,10.40
2009,09,11,06,46,10.40
2009,09,11,06,47,10.40
2009,09,11,06,48,10.40
2009,09,11,06,49,10.40
2009,09,11,06,50,10.40
2009,09,11,06,51,10.50
2009,09,11,06,52,10.50
2009,09,11,06,53,10.50
2009,09,11,06,54,10.50
2009,09,11,06,55,10.50
2009,09,11,06,56,10.50
2009,09,11,06,57,10.50
2009,09,11,06,58,10.40
2009,09,11,06,59,10.40
2009,09,11,07,00,10.40
2009,09,11,07,01,10.40
2009,09,11,07,02,10.40
2009,09,11,07,03,10.40
2009,09,11,07,04,10.40
2009,09,11,07,05,10.40
2009,09,11,07,06,10.40
2009,09,11,07,07,10.40
2009,09,11,07,08,10.40
2009,09,11,07,09,10.40
2009,09,11,07,10,10.50
2009,09,11,07,11,10.50
2009,09,11,07,12,10.50
2009,09,11,07,13,10.50
2009,09,11,07,14,10.50
2009,09,11,07,15,10.50
2009,09,11,07,16,10.50
2009,09,11,07,17,10.50
2009,09,11,07,18,10.50
2009,09,11,07,19,10.50
2009,09,11,07,20,10.50
2009,09,11,07,21,10.50
2009,09,11,07,22,10.50
2009,09,11,07,23,10.50
2009,09,11,07,24,10.50
2009,09,11,07,25,10.40
2009,09,11,07,26,10.40
2009,09,11,07,27,10.40
2009,09,11,07,28,10.50
2009,09,11,07,29,10.50
2009,09,11,07,30,10.50
2009,09,11,07,31,10.60
2009,09,11,07,32,10.60
2009,09,11,07,33,10.60
2009,09,11,07,34,10.60
2009,09,11,07,35,10.60
2009,09,11,07,36,10.60
2009,09,11,07,37,10.70
2009,09,11,07,38,10.70
2009,09,11,07,39,10.70
2009,09,11,07,40,10.70
2009,09,11,07,41,10.70
2009,09,11,07,42,10.70
2009,09,11,07,43,10.70
2009,09,11,07,44,10.80
2009,09,11,07,45,10.80
2009,09,11,07,46,10.80
2009,09,11,07,47,10.80
2009,09,11,07,48,10.80
2009,09,11,07,49,10.80
2009,09,11,07,50,10.80
2009,09,11,07,51,10.80
2009,09,11,07,52,10.90
2009,09,11,07,53,10.90
2009,09,11,07,54,10.90
2009,09,11,07,55,11.00
2009,09,11,07,56,11.00
2009,09,11,07,57,11.00
2009,09,11,07,58,11.10
2009,09,11,07,59,11.10
2009,09,11,08,00,11.10
2009,09,11,08,01,11.10
2009,09,11,08,02,11.10
2009,09,11,08,03,11.20
2009,09,11,08,04,11.20
2009,09,11,08,05,11.20
2009,09,11,08,06,11.20
2009,09,11,08,07,11.20
2009,09,11,08,08,11.30
2009,09,11,08,09,11.30
2009,09,11,08,10,11.30
2009,09,11,08,11,11.30
2009,09,11,08,12,11.40
2009,09,11,08,13,11.40
2009,09,11,08,14,11.40
2009,09,11,08,15,11.40
2009,09,11,08,16,11.50
2009,09,11,08,17,11.50
2009,09,11,08,18,11.60
2009,09,11,08,19,11.60
2009,09,11,08,20,11.60
2009,09,11,08,21,11.60
2009,09,11,08,22,11.70
2009,09,11,08,23,11.70
2009,09,11,08,24,11.80
2009,09,11,08,25,11.80
2009,09,11,08,26,11.90
2009,09,11,08,27,11.90
2009,09,11,08,28,11.90
2009,09,11,08,29,12.00
2009,09,11,08,30,12.00
2009,09,11,08,31,12.10
2009,09,11,08,32,12.10
2009,09,11,08,33,12.20
2009,09,11,08,34,12.20
2009,09,11,08,35,12.20
2009,09,11,08,36,12.30
2009,09,11,08,37,12.30
2009,09,11,08,38,12.30
2009,09,11,08,39,12.30
2009,09,11,08,40,12.40
2009,09,11,08,41,12.40
2009,09,11,08,42,12.50
2009,09,11,08,43,12.60
2009,09,11,08,44,12.60
2009,09,11,08,45,12.70
2009,09,11,08,46,12.70
2009,09,11,08,47,12.80
2009,09,11,08,48,12.90
2009,09,11,08,49,13.00
2009,09,11,08,50,13.00
2009,09,11,08,51,13.10
2009,09,11,08,52,13.20
2009,09,11,08,53,13.20
2009,09,11,08,54,13.30
2009,09,11,08,55,13.30
2009,09,11,08,56,13.40
2009,09,11,08,57,13.50
2009,09,11,08,58,13.60
2009,09,11,08,59,13.60
2009,09,11,09,00,13.70
2009,09,11,09,01,13.80
2009,09,11,09,02,13.90
2009,09,11,09,03,13.90
2009,09,11,09,04,14.00
2009,09,11,09,05,14.10
2009,09,11,09,06,14.10
2009,09,11,09,07,14.10
2009,09,11,09,08,14.20
2009,09,11,09,09,14.20
2009,09,11,09,10,14.20
2009,09,11,09,11,14.30
2009,09,11,09,12,14.40
2009,09,11,09,13,14.40
2009,09,11,09,14,14.50
2009,09,11,09,15,14.60
2009,09,11,09,16,14.60
2009,09,11,09,17,14.70
2009,09,11,09,18,14.70
2009,09,11,09,19,14.80
2009,09,11,09,20,14.90
2009,09,11,09,21,15.00
2009,09,11,09,22,15.00
2009,09,11,09,23,15.00
2009,09,11,09,24,15.00
2009,09,11,09,25,15.10
2009,09,11,09,26,15.20
2009,09,11,09,27,15.30
2009,09,11,09,28,15.30
2009,09,11,09,29,15.40
2009,09,11,09,30,15.50
2009,09,11,09,31,15.60
2009,09,11,09,32,15.70
2009,09,11,09,33,15.70
2009,09,11,09,34,15.80
2009,09,11,09,35,15.90
2009,09,11,09,36,16.00
2009,09,11,09,37,16.00
2009,09,11,09,38,16.10
2009,09,11,09,39,16.20
2009,09,11,09,40,16.30
2009,09,11,09,41,16.40
2009,09,11,09,42,16.50
2009,09,11,09,43,16.60
2009,09,11,09,44,16.70
2009,09,11,09,45,16.70
2009,09,11,09,46,16.80
2009,09,11,09,47,16.90
2009,09,11,09,48,16.90
2009,09,11,09,49,16.90
2009,09,11,09,50,17.00
2009,09,11,09,51,17.10
2009,09,11,09,52,17.20
2009,09,11,09,53,17.30
2009,09,11,09,54,17.40
2009,09,11,09,55,17.50
2009,09,11,09,56,17.60
2009,09,11,09,57,17.70
2009,09,11,09,58,17.80
2009,09,11,09,59,17.90
2009,09,11,10,00,18.00
2009,09,11,10,01,18.10
2009,09,11,10,02,18.20
2009,09,11,10,03,18.20
2009,09,11,10,04,18.30
2009,09,11,10,05,18.30
2009,09,11,10,06,18.40
2009,09,11,10,07,18.40
2009,09,11,10,08,18.50
2009,09,11,10,09,18.50
2009,09,11,10,10,18.60
2009,09,11,10,11,18.60
2009,09,11,10,12,18.70
2009,09,11,10,13,18.70
2009,09,11,10,14,18.80
2009,09,11,10,15,18.80
2009,09,11,10,16,18.80
2009,09,11,10,17,18.90
2009,09,11,10,18,18.90
2009,09,11,10,19,18.90
2009,09,11,10,20,19.00
2009,09,11,10,21,19.00
2009,09,11,10,22,19.10
2009,09,11,10,23,19.10
2009,09,11,10,24,19.20
2009,09,11,10,25,19.20
2009,09,11,10,26,19.30
2009,09,11,10,27,19.30
2009,09,11,10,28,19.30
2009,09,11,10,29,19.40
2009,09,11,10,30,19.40
2009,09,11,10,31,19.40
2009,09,11,10,32,19.50
2009,09,11,10,33,19.50
2009,09,11,10,34,19.60
2009,09,11,10,35,19.70
2009,09,11,10,36,19.70
2009,09,11,10,37,19.80
2009,09,11,10,38,19.80
2009,09,11,10,39,19.90
2009,09,11,10,40,19.90
2009,09,11,10,41,19.90
2009,09,11,10,42,20.00
2009,09,11,10,43,20.00
2009,09,11,10,44,20.00
2009,09,11,10,45,20.10
2009,09,11,10,46,20.10
2009,09,11,10,47,20.10
2009,09,11,10,48,20.20
2009,09,11,10,49,20.20
2009,09,11,10,50,20.30
2009,09,11,10,51,20.30
2009,09,11,10,52,20.30
2009,09,11,10,53,20.40
2009,09,11,10,54,20.40
2009,09,11,10,55,20.50
2009,09,11,10,56,20.50
2009,09,11,10,57,20.60
2009,09,11,10,58,20.60
2009,09,11,10,59,20.70
2009,09,11,11,00,20.80
2009,09,11,11,01,20.80
2009,09,11,11,02,20.80
2009,09,11,11,03,20.80
2009,09,11,11,04,20.80
2009,09,11,11,05,20.80
2009,09,11,11,06,20.80
2009,09,11,11,07,20.80
2009,09,11,11,08,20.90
2009,09,11,11,09,20.90
2009,09,11,11,10,21.00
2009,09,11,11,11,21.00
2009,09,11,11,12,21.10
2009,09,11,11,13,21.20
2009,09,11,11,14,21.20
2009,09,11,11,15,21.20
2009,09,11,11,16,21.30
2009,09,11,11,17,21.30
2009,09,11,11,18,21.30
2009,09,11,11,19,21.30
2009,09,11,11,20,21.40
2009,09,11,11,21,21.50
2009,09,11,11,22,21.50
2009,09,11,11,23,21.60
2009,09,11,11,24,21.60
2009,09,11,11,25,21.60
2009,09,11,11,26,21.60
2009,09,11,11,27,21.70
2009,09,11,11,28,21.70
2009,09,11,11,29,21.70
2009,09,11,11,30,21.70
2009,09,11,11,31,21.80
2009,09,11,11,32,21.80
2009,09,11,11,33,21.80
2009,09,11,11,34,21.80
2009,09,11,11,35,21.80
2009,09,11,11,36,21.80
2009,09,11,11,37,21.80
2009,09,11,11,38,21.90
2009,09,11,11,39,21.90
2009,09,11,11,40,21.90
2009,09,11,11,41,22.00
2009,09,11,11,42,22.00
2009,09,11,11,43,22.10
2009,09,11,11,44,22.10
2009,09,11,11,45,22.10
2009,09,11,11,46,22.10
2009,09,11,11,47,22.10
2009,09,11,11,48,22.10
2009,09,11,11,49,22.10
2009,09,11,11,50,22.10
2009,09,11,11,51,22.10
2009,09,11,11,52,22.10
2009,09,11,11,53,22.10
2009,09,11,11,54,22.20
2009,09,11,11,55,22.30
2009,09,11,11,56,22.30
2009,09,11,11,57,22.40
2009,09,11,11,58,22.40
2009,09,11,11,59,22.40
2009,09,11,12,00,22.40
2009,09,11,12,01,22.50
2009,09,11,12,02,22.50
2009,09,11,12,03,22.60
2009,09,11,12,04,22.70
2009,09,11,12,05,22.80
2009,09,11,12,06,22.90
2009,09,11,12,07,22.90
2009,09,11,12,08,22.90
2009,09,11,12,09,22.90
2009,09,11,12,10,22.90
2009,09,11,12,11,22.90
2009,09,11,12,12,22.90
2009,09,11,12,13,22.90
2009,09,11,12,14,22.90
2009,09,11,12,15,22.80
2009,09,11,12,16,22.80
2009,09,11,12,17,22.80
2009,09,11,12,18,22.80
2009,09,11,12,19,22.90
2009,09,11,12,20,23.00
2009,09,11,12,21,23.00
2009,09,11,12,22,23.10
2009,09,11,12,23,23.10
2009,09,11,12,24,23.20
2009,09,11,12,25,23.30
2009,09,11,12,26,23.40
2009,09,11,12,27,23.50
2009,09,11,12,28,23.70
2009,09,11,12,29,23.80
2009,09,11,12,30,24.00
2009,09,11,12,31,24.20
2009,09,11,12,32,24.30
2009,09,11,12,33,24.40
2009,09,11,12,34,24.30
2009,09,11,12,35,24.30
2009,09,11,12,36,24.30
2009,09,11,12,37,24.30
2009,09,11,12,38,24.20
2009,09,11,12,39,24.10
2009,09,11,12,40,24.10
2009,09,11,12,41,24.20
2009,09,11,12,42,24.20
2009,09,11,12,43,24.30
2009,09,11,12,44,24.40
2009,09,11,12,45,24.50
2009,09,11,12,46,24.60
2009,09,11,12,47,24.70
2009,09,11,12,48,24.80
2009,09,11,12,49,24.80
2009,09,11,12,50,24.80
2009,09,11,12,51,24.90
2009,09,11,12,52,24.90
2009,09,11,12,53,24.90
2009,09,11,12,54,25.00
2009,09,11,12,55,25.10
2009,09,11,12,56,25.10
2009,09,11,12,57,25.20
2009,09,11,12,58,25.30
2009,09,11,12,59,25.30
2009,09,11,13,00,25.40
2009,09,11,13,01,25.40
2009,09,11,13,02,25.50
2009,09,11,13,03,25.60
2009,09,11,13,04,25.60
2009,09,11,13,05,25.70
2009,09,11,13,06,25.70
2009,09,11,13,07,25.80
2009,09,11,13,08,25.90
2009,09,11,13,09,25.90
2009,09,11,13,10,25.90
2009,09,11,13,11,25.90
2009,09,11,13,12,25.90
2009,09,11,13,13,25.90
2009,09,11,13,14,25.90
2009,09,11,13,15,25.90
2009,09,11,13,16,25.90
2009,09,11,13,17,25.90
2009,09,11,13,18,25.90
2009,09,11,13,19,25.90
2009,09,11,13,20,25.90
2009,09,11,13,21,25.90
2009,09,11,13,22,25.90
2009,09,11,13,23,25.90
2009,09,11,13,24,25.90
2009,09,11,13,25,25.90
2009,09,11,13,26,25.90
2009,09,11,13,27,25.90
2009,09,11,13,28,25.90
2009,09,11,13,29,25.90
2009,09,11,13,30,25.90
2009,09,11,13,31,25.90
2009,09,11,13,32,26.00
2009,09,11,13,33,26.10
2009,09,11,13,34,26.10
2009,09,11,13,35,26.10
2009,09,11,13,36,26.20
2009,09,11,13,37,26.20
2009,09,11,13,38,26.20
2009,09,11,13,39,26.10
2009,09,11,13,40,26.10
2009,09,11,13,41,26.10
2009,09,11,13,42,26.10
2009,09,11,13,43,26.10
2009,09,11,13,44,26.10
2009,09,11,13,45,26.20
2009,09,11,13,46,26.20
2009,09,11,13,47,26.30
2009,09,11,13,48,26.30
2009,09,11,13,49,26.30
2009,09,11,13,50,26.20
2009,09,11,13,51,26.20
2009,09,11,13,52,26.20
2009,09,11,13,53,26.20
2009,09,11,13,54,26.30
2009,09,11,13,55,26.30
2009,09,11,13,56,26.30
2009,09,11,13,57,26.30
2009,09,11,13,58,26.30
2009,09,11,13,59,26.30
2009,09,11,14,00,26.40
2009,09,11,14,01,26.40
2009,09,11,14,02,26.40
2009,09,11,14,03,26.50
2009,09,11,14,04,26.50
2009,09,11,14,05,26.50
2009,09,11,14,06,26.40
2009,09,11,14,07,26.40
2009,09,11,14,08,26.30
2009,09,11,14,09,26.30
2009,09,11,14,10,26.40
2009,09,11,14,11,26.40
2009,09,11,14,12,26.40
2009,09,11,14,13,26.40
2009,09,11,14,14,26.30
2009,09,11,14,15,26.20
2009,09,11,14,16,26.00
2009,09,11,14,17,25.90
2009,09,11,14,18,25.90
2009,09,11,14,19,25.90
2009,09,11,14,20,25.90
2009,09,11,14,21,25.90
2009,09,11,14,22,26.00
2009,09,11,14,23,26.20
2009,09,11,14,24,26.30
2009,09,11,14,25,26.40
2009,09,11,14,26,26.50
2009,09,11,14,27,26.60
2009,09,11,14,28,26.60
2009,09,11,14,29,26.70
2009,09,11,14,30,26.80
2009,09,11,14,31,26.90
2009,09,11,14,32,26.90
2009,09,11,14,33,27.00
2009,09,11,14,34,27.10
2009,09,11,14,35,27.20
2009,09,11,14,36,27.30
2009,09,11,14,37,27.40
2009,09,11,14,38,27.50
2009,09,11,14,39,27.60
2009,09,11,14,40,27.70
2009,09,11,14,41,27.80
2009,09,11,14,42,27.80
2009,09,11,14,43,27.90
2009,09,11,14,44,27.90
2009,09,11,14,45,27.90
2009,09,11,14,46,27.90
2009,09,11,14,47,28.00
2009,09,11,14,48,28.00
2009,09,11,14,49,28.00
2009,09,11,14,50,28.10
2009,09,11,14,51,28.10
2009,09,11,14,52,28.10
2009,09,11,14,53,28.20
2009,09,11,14,54,28.20
2009,09,11,14,55,28.10
2009,09,11,14,56,28.00
2009,09,11,14,57,27.80
2009,09,11,14,58,27.60
2009,09,11,14,59,27.40
2009,09,11,15,00,27.40
2009,09,11,15,01,27.40
2009,09,11,15,02,27.40
2009,09,11,15,03,27.50
2009,09,11,15,04,27.60
2009,09,11,15,05,27.60
2009,09,11,15,06,27.70
2009,09,11,15,07,27.80
2009,09,11,15,08,27.80
2009,09,11,15,09,27.80
2009,09,11,15,10,27.80
2009,09,11,15,11,27.70
2009,09,11,15,12,27.70
2009,09,11,15,13,27.70
2009,09,11,15,14,27.70
2009,09,11,15,15,27.70
2009,09,11,15,16,27.80
2009,09,11,15,17,27.80
2009,09,11,15,18,27.70
2009,09,11,15,19,27.70
2009,09,11,15,20,27.60
2009,09,11,15,21,27.70
2009,09,11,15,22,27.70
2009,09,11,15,23,27.70
2009,09,11,15,24,27.80
2009,09,11,15,25,27.80
2009,09,11,15,26,27.90
2009,09,11,15,27,28.00
2009,09,11,15,28,28.10
2009,09,11,15,29,28.20
2009,09,11,15,30,28.30
2009,09,11,15,31,28.40
2009,09,11,15,32,28.40
2009,09,11,15,33,28.50
2009,09,11,15,34,28.60
2009,09,11,15,35,28.60
2009,09,11,15,36,28.60
2009,09,11,15,37,28.60
2009,09,11,15,38,28.60
2009,09,11,15,39,28.60
2009,09,11,15,40,28.60
2009,09,11,15,41,28.70
2009,09,11,15,42,28.70
2009,09,11,15,43,28.70
2009,09,11,15,44,28.70
2009,09,11,15,45,28.70
2009,09,11,15,46,28.70
2009,09,11,15,47,28.70
2009,09,11,15,48,28.70
2009,09,11,15,49,28.70
2009,09,11,15,50,28.70
2009,09,11,15,51,28.80
2009,09,11,15,52,28.90
2009,09,11,15,53,28.90
2009,09,11,15,54,29.00
2009,09,11,15,55,29.00
2009,09,11,15,56,29.10
2009,09,11,15,57,29.20
2009,09,11,15,58,29.20
2009,09,11,15,59,29.30
2009,09,11,16,00,29.30
2009,09,11,16,01,29.30
2009,09,11,16,02,29.30
2009,09,11,16,03,29.40
2009,09,11,16,04,29.40
2009,09,11,16,05,29.50
2009,09,11,16,06,29.50
2009,09,11,16,07,29.60
2009,09,11,16,08,29.60
2009,09,11,16,09,29.70
2009,09,11,16,10,29.70
2009,09,11,16,11,29.70
2009,09,11,16,12,29.70
2009,09,11,16,13,29.70
2009,09,11,16,14,29.70
2009,09,11,16,15,29.70
2009,09,11,16,16,29.70
2009,09,11,16,17,29.60
2009,09,11,16,18,29.60
2009,09,11,16,19,29.60
2009,09,11,16,20,29.60
2009,09,11,16,21,29.60
2009,09,11,16,22,29.60
2009,09,11,16,23,29.60
2009,09,11,16,24,29.60
2009,09,11,16,25,29.60
2009,09,11,16,26,29.60
2009,09,11,16,27,29.60
2009,09,11,16,28,29.50
2009,09,11,16,29,29.50
2009,09,11,16,30,29.50
2009,09,11,16,31,29.40
2009,09,11,16,32,29.40
2009,09,11,16,33,29.40
2009,09,11,16,34,29.40
2009,09,11,16,35,29.40
2009,09,11,16,36,29.40
2009,09,11,16,37,29.40
2009,09,11,16,38,29.40
2009,09,11,16,39,29.40
2009,09,11,16,40,29.50
2009,09,11,16,41,29.50
2009,09,11,16,42,29.50
2009,09,11,16,43,29.60
2009,09,11,16,44,29.60
2009,09,11,16,45,29.60
2009,09,11,16,46,29.60
2009,09,11,16,47,29.60
2009,09,11,16,48,29.60
2009,09,11,16,49,29.60
2009,09,11,16,50,29.50
2009,09,11,16,51,29.50
2009,09,11,16,52,29.60
2009,09,11,16,53,29.60
2009,09,11,16,54,29.60
2009,09,11,16,55,29.60
2009,09,11,16,56,29.60
2009,09,11,16,57,29.50
2009,09,11,16,58,29.50
2009,09,11,16,59,29.50
2009,09,11,17,00,29.60
2009,09,11,17,01,29.60
2009,09,11,17,02,29.50
2009,09,11,17,03,29.50
2009,09,11,17,04,29.30
2009,09,11,17,05,29.30
2009,09,11,17,06,29.20
2009,09,11,17,07,29.20
2009,09,11,17,08,29.20
2009,09,11,17,09,29.20
2009,09,11,17,10,29.20
2009,09,11,17,11,29.20
2009,09,11,17,12,29.20
2009,09,11,17,13,29.10
2009,09,11,17,14,29.20
2009,09,11,17,15,29.20
2009,09,11,17,16,29.20
2009,09,11,17,17,29.20
2009,09,11,17,18,29.20
2009,09,11,17,19,29.30